Camp Douglas, WI

3:27 AM CDT on August 29, 2016 (GMT -0500)
Volk

Weather History for KVOK - May, 2013

Change the Weather History Date:

Friday, May 31, 2013

  Actual Average Record
Temperature  
Mean Temperature 70 °F -  
Max Temperature 80 °F 67 °F 86 °F (2014)
Min Temperature 62 °F 52 °F 33 °F (2015)
Cooling Degree Days 5    
Growing Degree Days 20 (Base 50)    
Moisture  
Dew Point 60 °F    
Average Humidity 78    
Maximum Humidity 89    
Minimum Humidity 47    
Precipitation  
Precipitation 0.00 in - - ()
Sea Level Pressure  
Sea Level Pressure 29.69 in    
Wind  
Wind Speed 10 mph (South)    
Max Wind Speed 18 mph    
Max Gust Speed 29 mph    
Visibility 10 miles    
Events      
Averages and records for this station are not official NWS values.
T = Trace of Precipitation, MM = Missing Value Source: NWS Daily Summary

Daily Weather History Graph

Daily Weather History Graph

Search for Another Location

Airport or City:

Trip Planner

Search our weather history database for the weather conditions in past years. The results will help you decide how hot, cold, wet, or windy it might be!

Date:

Astronomy

May. 31, 2013 Rise Set
Actual Time 5:21 AM CDT 8:36 PM CDT
Civil Twilight 4:46 AM CDT 9:11 PM CDT
Nautical Twilight 4:01 AM CDT 9:57 PM CDT
Astronomical Twilight 3:05 AM CDT 10:53 PM CDT
Moon 1:01 AM CDT (5/31) 12:47 PM CDT (5/31)
Length of Visible Light 16h 24m
Length of Day
15h 14m
Waning Gibbous, 51% of the Moon is Illuminated
May 31
Waning Gibbous
May 31
Last Quarter
Jun 8
New
Jun 16
First Quarter
Jun 23
Full

Hourly Weather History & Observations

Time (CDT) Temp. Dew Point Humidity Pressure Visibility Wind Dir Wind Speed Gust Speed Precip Events Conditions
12:58 AM 63.5 °F 59.0 °F 85% 29.71 in 10.0 mi SSE 10.4 mph - N/A   Scattered Clouds
1:23 AM 64.4 °F 59.0 °F 83% 29.71 in 10.0 mi South 11.5 mph - N/A   Mostly Cloudy
1:28 AM 64.4 °F 59.0 °F 83% 29.71 in 10.0 mi South 12.7 mph 17.3 mph N/A   Mostly Cloudy
1:58 AM 63.5 °F 59.2 °F 86% 29.71 in 10.0 mi South 9.2 mph - N/A   Mostly Cloudy
2:58 AM 64.4 °F 59.0 °F 83% 29.70 in 10.0 mi South 9.2 mph - N/A   Overcast
3:28 AM 64.4 °F 59.0 °F 83% 29.71 in 10.0 mi South 6.9 mph - N/A   Mostly Cloudy
3:58 AM 63.9 °F 59.7 °F 86% 29.71 in 10.0 mi South 8.1 mph - N/A   Mostly Cloudy
4:03 AM 64.4 °F 59.0 °F 83% 29.71 in 10.0 mi South 8.1 mph - N/A   Mostly Cloudy
4:13 AM 64.4 °F 59.0 °F 83% 29.70 in 10.0 mi South 6.9 mph - N/A   Mostly Cloudy
4:28 AM 62.6 °F 59.0 °F 88% 29.70 in 10.0 mi SE 5.8 mph - N/A   Mostly Cloudy
4:33 AM 62.6 °F 59.0 °F 88% 29.70 in 10.0 mi SE 5.8 mph - N/A   Mostly Cloudy
4:58 AM 63.0 °F 59.5 °F 89% 29.70 in 10.0 mi SSE 9.2 mph - N/A   Mostly Cloudy
5:08 AM 62.6 °F 59.0 °F 88% 29.70 in 10.0 mi SSE 9.2 mph - N/A   Scattered Clouds
5:13 AM 62.6 °F 59.0 °F 88% 29.70 in 10.0 mi SSE 9.2 mph - N/A   Mostly Cloudy
5:23 AM 62.6 °F 59.0 °F 88% 29.69 in 10.0 mi SSE 10.4 mph - N/A   Scattered Clouds
5:33 AM 62.6 °F 59.0 °F 88% 29.69 in 10.0 mi SSE 10.4 mph - N/A   Mostly Cloudy
5:43 AM 62.6 °F 59.0 °F 88% 29.71 in 10.0 mi South 6.9 mph - N/A   Mostly Cloudy
5:58 AM 63.3 °F 59.9 °F 89% 29.72 in 10.0 mi Variable 6.9 mph - N/A   Overcast
6:58 AM 64.4 °F 60.8 °F 88% 29.70 in 10.0 mi South 13.8 mph - N/A   Overcast
7:13 AM 64.4 °F 60.8 °F 88% 29.69 in 10.0 mi South 16.1 mph 23.0 mph N/A   Mostly Cloudy
7:23 AM 64.4 °F 60.8 °F 88% 29.69 in 10.0 mi South 12.7 mph 23.0 mph N/A   Mostly Cloudy
7:58 AM 66.2 °F 60.8 °F 83% 29.72 in 10.0 mi Variable 6.9 mph - N/A   Overcast
8:58 AM 66.2 °F 60.8 °F 83% 29.73 in 10.0 mi South 10.4 mph 17.3 mph N/A   Overcast
9:58 AM 69.8 °F 62.6 °F 78% 29.71 in 10.0 mi SSE 15.0 mph 20.7 mph N/A   Scattered Clouds
10:58 AM 73.4 °F 62.6 °F 69% 29.71 in 10.0 mi South 18.4 mph - N/A   Scattered Clouds
11:58 AM 73.4 °F 62.6 °F 69% 29.72 in 10.0 mi South 17.3 mph 25.3 mph N/A   Scattered Clouds
12:58 PM 73.4 °F 62.6 °F 69% 29.72 in 10.0 mi South 9.2 mph 24.2 mph N/A   Scattered Clouds
1:58 PM 75.2 °F 62.6 °F 65% 29.71 in 10.0 mi SSW 10.4 mph 19.6 mph N/A   Scattered Clouds
2:58 PM 78.8 °F 59.0 °F 51% 29.68 in 10.0 mi SSW 9.2 mph 24.2 mph N/A   Scattered Clouds
3:58 PM 78.8 °F 57.2 °F 47% 29.66 in 10.0 mi SSW 15.0 mph 28.8 mph N/A   Scattered Clouds
4:58 PM 78.8 °F 57.2 °F 47% 29.65 in 10.0 mi South 13.8 mph 24.2 mph N/A   Scattered Clouds
5:58 PM 77.0 °F 59.0 °F 54% 29.65 in 10.0 mi SSW 9.2 mph 18.4 mph N/A   Scattered Clouds
6:58 PM 75.2 °F 59.0 °F 57% 29.64 in 10.0 mi South 13.8 mph 18.4 mph N/A   Scattered Clouds
7:58 PM 73.4 °F 60.8 °F 65% 29.65 in 10.0 mi South 12.7 mph - N/A   Scattered Clouds
8:58 PM 69.8 °F 60.4 °F 72% 29.66 in 10.0 mi South 8.1 mph - N/A   Clear
9:58 PM 67.5 °F 60.4 °F 78% 29.66 in 10.0 mi SSE 4.6 mph - N/A   Clear
10:58 PM 66.6 °F 60.4 °F 81% 29.66 in 10.0 mi SSE 4.6 mph - N/A   Clear
11:58 PM 65.5 °F 61.0 °F 85% 29.67 in 10.0 mi South 6.9 mph - N/A   Clear